• Em Portugal
  • Lista de países
  • Para 7 dias
  • Temperatura da água
  • Mapas de satélite
  • Mapa do tempo
  • Widgets de tempo
  • user-avatar
    Iniciar Sessão

    Previsão horária em Al-Chums

    Hoje, 24 Fevereiro, Sábado

    Tempo Temperatura Precipitação Vento Pressão Humidade
    00:00 +12°C° 0 mm 1 m/s 713 mmHg 59%
    01:00 +11°C° 0 mm 1 m/s 713 mmHg 59%
    02:00 +11°C° 0 mm 1 m/s 712 mmHg 59%
    03:00 +10°C° 0 mm 1 m/s 712 mmHg 60%
    04:00 +10°C° 0 mm 1 m/s 712 mmHg 60%
    05:00 +10°C° 0 mm 1 m/s 712 mmHg 60%
    06:00 +11°C° 0 mm 1 m/s 713 mmHg 56%
    07:00 +12°C° 0 mm 1 m/s 713 mmHg 52%
    08:00 +13°C° 0 mm 1 m/s 713 mmHg 48%
    09:00 +14°C° 0 mm 1 m/s 714 mmHg 45%
    10:00 +15°C° 0 mm 2 m/s 714 mmHg 42%
    11:00 +16°C° 0 mm 2 m/s 714 mmHg 39%
    12:00 +16°C° 0 mm 3 m/s 714 mmHg 39%
    13:00 +17°C° 0 mm 4 m/s 714 mmHg 40%
    14:00 +17°C° 0 mm 4 m/s 713 mmHg 40%
    15:00 +15°C° 0 mm 5 m/s 713 mmHg 45%
    16:00 +14°C° 0 mm 5 m/s 714 mmHg 50%
    17:00 +14°C° 0 mm 5 m/s 714 mmHg 55%
    18:00 +13°C° 0 mm 4 m/s 714 mmHg 60%
    19:00 +12°C° 0 mm 3 m/s 714 mmHg 65%
    20:00 +12°C° 0 mm 2 m/s 714 mmHg 70%
    21:00 +10°C° 0 mm 2 m/s 714 mmHg 71%
    22:00 +10°C° 0 mm 2 m/s 714 mmHg 72%
    23:00 +11°C° 0 mm 1 m/s 714 mmHg 74%

    Amanhã, 25 Fevereiro, Domingo

    Tempo Temperatura Precipitação Vento Pressão Humidade
    00:00 +11°C° 0 mm 1 m/s 714 mmHg 74%
    01:00 +10°C° 0 mm 1 m/s 714 mmHg 74%
    02:00 +10°C° 0 mm 1 m/s 714 mmHg 74%
    03:00 +10°C° 0 mm 1 m/s 714 mmHg 73%
    04:00 +10°C° 0 mm 1 m/s 714 mmHg 72%
    05:00 +10°C° 0 mm 1 m/s 714 mmHg 71%
    06:00 +10°C° 0 mm 2 m/s 714 mmHg 65%
    07:00 +12°C° 0 mm 2 m/s 714 mmHg 59%
    08:00 +12°C° 0 mm 3 m/s 714 mmHg 53%
    09:00 +14°C° 0 mm 4 m/s 714 mmHg 48%
    10:00 +15°C° 0 mm 5 m/s 714 mmHg 44%
    11:00 +16°C° 0 mm 6 m/s 714 mmHg 39%
    12:00 +16°C° 0,1 mm 6 m/s 713 mmHg 40%
    13:00 +17°C° 0,1 mm 7 m/s 713 mmHg 41%
    14:00 +17°C° 0,1 mm 8 m/s 712 mmHg 41%
    15:00 +16°C° 0 mm 8 m/s 712 mmHg 48%
    16:00 +15°C° 0 mm 7 m/s 712 mmHg 54%
    17:00 +14°C° 0 mm 7 m/s 712 mmHg 60%
    18:00 +13°C° 0 mm 6 m/s 712 mmHg 66%
    19:00 +11°C° 0 mm 6 m/s 713 mmHg 72%
    20:00 +10°C° 0 mm 5 m/s 713 mmHg 78%
    21:00 +10°C° 0 mm 5 m/s 713 mmHg 78%
    22:00 +11°C° 0 mm 4 m/s 713 mmHg 79%
    23:00 +10°C° 0 mm 4 m/s 713 mmHg 79%

    Depois de amanhã, 26 Fevereiro, Segunda-feira

    Tempo Temperatura Precipitação Vento Pressão Humidade
    00:00 +10°C° 0 mm 4 m/s 713 mmHg 78%
    01:00 +10°C° 0 mm 3 m/s 713 mmHg 78%
    02:00 +10°C° 0 mm 3 m/s 713 mmHg 77%
    03:00 +10°C° 0,1 mm 3 m/s 713 mmHg 77%
    04:00 +10°C° 0,1 mm 2 m/s 712 mmHg 78%
    05:00 +10°C° 0,1 mm 2 m/s 712 mmHg 78%
    06:00 +10°C° 0,1 mm 2 m/s 713 mmHg 75%
    07:00 +12°C° 0,1 mm 2 m/s 713 mmHg 71%
    08:00 +12°C° 0,1 mm 2 m/s 714 mmHg 67%
    09:00 +13°C° 0 mm 2 m/s 713 mmHg 62%
    10:00 +14°C° 0 mm 2 m/s 713 mmHg 57%
    11:00 +14°C° 0 mm 3 m/s 713 mmHg 52%
    12:00 +14°C° 0,1 mm 3 m/s 713 mmHg 53%
    13:00 +14°C° 0,1 mm 3 m/s 713 mmHg 53%
    14:00 +14°C° 0,1 mm 3 m/s 712 mmHg 53%
    15:00 +14°C° 0 mm 3 m/s 712 mmHg 55%
    16:00 +14°C° 0 mm 2 m/s 712 mmHg 57%
    17:00 +14°C° 0 mm 2 m/s 712 mmHg 60%
    18:00 +13°C° 0 mm 2 m/s 712 mmHg 64%
    19:00 +12°C° 0 mm 1 m/s 713 mmHg 68%
    20:00 +12°C° 0 mm 1 m/s 713 mmHg 73%
    21:00 +11°C° 0 mm 1 m/s 713 mmHg 73%
    22:00 +11°C° 0 mm 1 m/s 713 mmHg 74%
    23:00 +11°C° 0 mm 1 m/s 713 mmHg 74%

    27 Fevereiro, Terça-feira

    Tempo Temperatura Precipitação Vento Pressão Humidade
    00:00 +11°C° 0 mm 1 m/s 713 mmHg 75%
    01:00 +10°C° 0 mm 1 m/s 713 mmHg 75%
    02:00 +10°C° 0 mm 1 m/s 712 mmHg 75%
    03:00 +10°C° 0 mm 1 m/s 712 mmHg 74%
    04:00 +10°C° 0 mm 1 m/s 712 mmHg 73%
    05:00 +10°C° 0 mm 1 m/s 712 mmHg 72%
    06:00 +11°C° 0,2 mm 1 m/s 713 mmHg 70%
    07:00 +12°C° 0,2 mm 2 m/s 713 mmHg 69%
    08:00 +12°C° 0,2 mm 2 m/s 714 mmHg 67%
    09:00 +12°C° 0,1 mm 3 m/s 714 mmHg 64%
    10:00 +13°C° 0,1 mm 4 m/s 714 mmHg 61%
    11:00 +14°C° 0,1 mm 5 m/s 715 mmHg 58%
    12:00 +15°C° 0 mm 5 m/s 715 mmHg 55%
    13:00 +15°C° 0 mm 6 m/s 714 mmHg 53%
    14:00 +16°C° 0 mm 7 m/s 714 mmHg 50%
    15:00 +15°C° 0 mm 6 m/s 715 mmHg 54%
    16:00 +14°C° 0 mm 6 m/s 715 mmHg 57%
    17:00 +13°C° 0 mm 5 m/s 715 mmHg 61%
    18:00 +12°C° 0 mm 4 m/s 716 mmHg 66%
    19:00 +11°C° 0 mm 3 m/s 716 mmHg 72%
    20:00 +10°C° 0 mm 2 m/s 717 mmHg 77%
    21:00 +10°C° 0 mm 2 m/s 717 mmHg 78%
    22:00 +10°C° 0 mm 2 m/s 717 mmHg 79%
    23:00 +10°C° 0 mm 1 m/s 717 mmHg 79%

    28 Fevereiro, Quarta-feira

    Tempo Temperatura Precipitação Vento Pressão Humidade
    00:00 +10°C° 0 mm 1 m/s 717 mmHg 80%
    01:00 +10°C° 0 mm 1 m/s 717 mmHg 81%
    02:00 +8°C° 0 mm 0 m/s 717 mmHg 82%
    03:00 +8°C° 0 mm 0 m/s 717 mmHg 82%
    04:00 +9°C° 0 mm 1 m/s 717 mmHg 82%
    05:00 +9°C° 0 mm 1 m/s 717 mmHg 82%
    06:00 +10°C° 0 mm 1 m/s 718 mmHg 76%
    07:00 +11°C° 0 mm 1 m/s 718 mmHg 69%
    08:00 +13°C° 0 mm 1 m/s 719 mmHg 63%
    09:00 +14°C° 0 mm 2 m/s 719 mmHg 57%
    10:00 +14°C° 0 mm 3 m/s 719 mmHg 50%
    11:00 +17°C° 0 mm 3 m/s 719 mmHg 44%
    12:00 +17°C° 0 mm 3 m/s 718 mmHg 42%
    13:00 +18°C° 0 mm 3 m/s 718 mmHg 39%
    14:00 +19°C° 0 mm 3 m/s 717 mmHg 36%
    15:00 +18°C° 0 mm 3 m/s 717 mmHg 40%
    16:00 +17°C° 0 mm 2 m/s 717 mmHg 44%
    17:00 +17°C° 0 mm 2 m/s 717 mmHg 47%
    18:00 +16°C° 0 mm 2 m/s 717 mmHg 52%
    19:00 +14°C° 0 mm 2 m/s 717 mmHg 58%
    20:00 +13°C° 0 mm 1 m/s 717 mmHg 63%
    21:00 +13°C° 0 mm 1 m/s 717 mmHg 64%
    22:00 +13°C° 0 mm 1 m/s 717 mmHg 66%
    23:00 +12°C° 0 mm 1 m/s 717 mmHg 67%

    1 Março, Quinta-feira

    Tempo Temperatura Precipitação Vento Pressão Humidade
    00:00 +12°C° 0 mm 1 m/s 716 mmHg 68%
    01:00 +12°C° 0 mm 1 m/s 716 mmHg 68%
    02:00 +11°C° 0 mm 1 m/s 716 mmHg 69%
    03:00 +11°C° 0 mm 1 m/s 716 mmHg 69%
    04:00 +10°C° 0 mm 1 m/s 716 mmHg 70%
    05:00 +10°C° 0 mm 1 m/s 717 mmHg 70%
    06:00 +11°C° 0 mm 1 m/s 717 mmHg 65%
    07:00 +13°C° 0 mm 1 m/s 717 mmHg 59%
    08:00 +14°C° 0 mm 1 m/s 718 mmHg 53%
    09:00 +15°C° 0 mm 1 m/s 718 mmHg 48%
    10:00 +16°C° 0 mm 2 m/s 718 mmHg 42%
    11:00 +18°C° 0 mm 2 m/s 718 mmHg 36%
    12:00 +18°C° 0 mm 2 m/s 718 mmHg 35%
    13:00 +19°C° 0 mm 3 m/s 718 mmHg 34%
    14:00 +19°C° 0 mm 3 m/s 718 mmHg 33%
    15:00 +18°C° 0 mm 3 m/s 718 mmHg 37%
    16:00 +18°C° 0 mm 3 m/s 718 mmHg 42%
    17:00 +17°C° 0 mm 3 m/s 718 mmHg 47%
    18:00 +16°C° 0 mm 3 m/s 718 mmHg 53%
    19:00 +14°C° 0 mm 2 m/s 718 mmHg 58%
    20:00 +13°C° 0 mm 2 m/s 719 mmHg 64%
    21:00 +13°C° 0 mm 1 m/s 719 mmHg 66%
    22:00 +12°C° 0 mm 1 m/s 719 mmHg 67%
    23:00 +12°C° 0 mm 1 m/s 719 mmHg 69%
    Mostrar mais